Volver al catálogo

STARLINK-35595

ActivoComunicacionesVLEO
NORAD 66101·PAYLOAD·🇺🇸 United States

Lanzado Oct 19, 2025 desde Vandenberg Space Force Base

Loading…

Próximos Pases (próximas 24 horas)

TLE

ActualizadoSource: CelesTrak SupGP

Época: Sep 14, 2026, 21:01 UTC

1 66101C 25236R   26257.87618056  .00001791  00000+0  52940-4 0  2573
2 66101  53.1574 302.1394 0001233  87.7104 212.3460 15.34380962    19

Sigue STARLINK-35595 en tiempo real con AllMySat

Download on the App Store